Wind_Speed
81 78 74 69 63 58 53 48 45 42 39 37 35 34 34 33 32 31 30 30 31 32 34 37 40 43 45 48 51 53 56 59 62 65 69 73 77 79 81 82 85 89 93 97 101 104 107 110 113 115 118 120 121 124 127 129 132 136 139 141 143 145 147 148 149 149 151 153 154 155 156 156 157 156 156 156 156 156 156 156 156 156 156 157 158
83 79 76 72 68 62 57 52 47 44 41 38 36 35 34 34 33 32 31 31 31 31 31 34 37 40 43 45 47 50 53 55 58 61 64 68 72 75 76 78 79 82 85 88 92 96 100 104 108 111 114 116 117 119 121 124 127 130 132 134 137 139 142 144 146 146 148 150 151 153 155 156 157 157 156 156 156 156 156 157 157 156 156 156 156
87 81 77 74 70 66 61 56 51 46 42 39 36 34 34 34 34 33 32 32 31 31 30 31 34 36 40 43 44 46 49 52 54 57 60 63 66 69 71 73 76 78 80 83 86 88 92 97 101 106 110 112 113 115 117 120 122 124 126 128 131 133 136 139 141 143 145 147 148 150 153 155 155 156 156 156 156 156 156 157 157 157 156 156 156
90 84 79 76 72 68 64 60 55 50 45 41 38 35 33 32 33 33 33 32 31 31 31 31 32 33 36 39 42 44 46 48 50 53 56 59 61 64 66 69 72 75 78 80 81 83 86 90 94 99 104 107 110 112 114 116 118 120 121 124 126 128 131 134 136 138 140 143 145 147 149 151 152 153 155 156 156 157 157 157 157 157 157 157 157
94 87 82 77 74 70 66 62 58 53 49 44 40 37 34 32 31 32 32 32 31 31 31 31 31 32 33 35 38 41 43 45 47 49 51 54 57 59 62 65 68 71 75 77 79 80 82 85 88 92 96 100 105 108 111 112 114 116 118 121 123 125 126 129 131 133 135 138 140 144 146 148 149 150 152 154 155 156 157 157 157 157 157 157 157
97 90 84 80 76 72 69 65 61 56 52 47 43 39 36 33 31 30 30 31 31 31 30 31 31 31 32 33 35 37 40 42 44 46 48 50 53 55 58 61 64 67 71 74 76 78 79 81 83 86 89 93 98 102 106 109 110 112 114 117 120 121 122 124 126 127 129 132 135 139 142 145 146 146 148 150 151 153 155 156 157 157 157 157 158
98 93 87 82 78 74 71 67 64 59 55 51 46 42 38 35 33 31 30 29 30 30 30 30 30 31 31 32 33 34 36 39 41 43 45 47 49 52 55 58 61 64 67 70 73 75 77 78 80 81 84 87 91 95 99 103 106 108 110 113 115 117 118 120 121 122 124 126 129 133 137 141 142 143 145 146 147 149 150 152 154 156 157 158 159
100 95 89 84 80 77 73 69 66 62 58 53 49 45 41 37 35 33 31 30 29 28 29 30 30 30 30 31 32 33 34 36 38 40 42 44 46 49 51 54 57 60 63 66 69 71 74 76 77 78 80 82 85 89 92 96 99 103 105 108 111 113 115 116 117 118 119 121 123 127 131 135 138 140 142 144 145 145 146 148 150 153 156 158 159
101 96 91 86 82 79 75 71 67 64 61 57 52 48 44 40 37 34 32 31 29 28 28 28 29 29 29 30 31 32 32 33 35 37 39 41 43 46 48 51 54 56 59 61 64 67 70 72 74 76 77 79 81 84 87 90 93 96 100 103 106 109 111 113 114 115 116 117 119 121 125 129 132 135 137 140 142 143 144 145 147 149 153 155 156
102 97 93 88 83 80 77 73 69 65 63 59 55 51 47 43 40 37 34 32 30 29 28 27 27 28 28 29 30 31 32 32 32 34 36 39 41 43 46 48 51 53 55 57 59 62 65 68 71 73 75 76 78 80 82 85 88 91 94 97 101 104 107 109 111 112 113 114 115 117 120 123 126 129 132 135 137 140 142 144 145 146 149 151 153
104 98 94 89 84 81 78 75 71 67 64 61 57 54 50 46 42 39 37 34 31 29 28 27 26 26 26 27 28 30 31 32 32 32 34 36 39 41 43 46 48 50 52 53 55 57 60 63 67 70 72 74 75 77 79 81 83 86 89 92 95 98 101 104 107 109 110 111 112 114 116 119 121 125 128 131 133 135 137 140 142 144 146 148 149
105 99 95 90 86 82 79 76 73 69 66 63 59 55 52 49 45 41 38 37 34 31 29 27 27 26 25 25 26 28 30 31 32 32 32 33 36 38 41 43 45 47 49 51 52 54 56 58 61 65 68 71 73 75 76 78 80 82 85 87 90 93 96 99 102 105 106 108 109 111 113 116 119 122 124 127 128 130 132 134 136 139 143 145 146
105 100 95 91 87 83 80 77 74 70 67 64 61 57 54 50 47 44 40 38 36 34 31 29 27 27 26 25 25 26 28 29 31 32 31 32 33 35 38 41 43 45 47 48 49 51 52 54 57 60 64 68 70 73 74 76 77 79 81 84 86 89 91 94 97 100 102 104 106 108 110 113 116 118 121 123 125 126 128 129 131 134 137 140 141
105 100 95 92 88 84 81 78 75 72 69 66 63 59 56 52 49 46 42 39 37 36 34 31 28 27 26 26 25 25 26 27 29 31 31 31 32 33 35 38 40 43 44 46 47 48 49 51 53 56 59 63 67 69 72 73 75 77 78 81 83 86 88 90 92 95 97 100 102 105 107 110 112 115 118 120 122 123 124 126 128 130 133 135 136
105 100 95 91 88 84 81 79 76 73 70 67 64 61 58 54 50 47 44 41 38 37 35 34 31 28 27 26 26 25 24 25 27 29 30 31 32 32 33 35 37 40 42 44 45 45 47 48 51 53 55 59 62 65 68 71 73 75 77 78 80 82 84 86 88 90 92 94 97 101 104 106 109 112 115 117 118 119 121 123 125 127 129 130 131
105 99 94 91 88 84 81 79 77 74 71 68 65 62 59 56 52 49 46 42 40 38 36 35 33 31 28 26 26 26 25 24 25 26 28 30 31 32 32 33 34 37 39 41 43 44 45 46 48 50 52 55 58 61 64 67 70 73 75 76 77 79 81 84 86 87 88 90 92 96 99 102 105 108 110 112 114 115 117 118 120 122 123 125 127
103 98 93 90 87 84 82 79 77 75 72 69 66 63 60 57 54 51 47 44 40 38 37 36 34 33 30 27 26 25 25 25 25 25 26 28 30 31 32 33 33 34 36 38 40 42 43 44 46 47 49 51 54 57 60 64 67 69 72 74 76 77 79 80 82 84 86 88 90 92 94 97 100 103 105 107 110 111 112 113 115 116 118 121 124
102 96 92 89 87 84 81 79 77 75 73 70 67 64 60 58 56 53 49 46 42 39 37 37 35 34 32 30 27 25 25 24 24 24 25 26 28 30 31 32 33 34 34 36 38 39 41 42 44 45 47 49 51 53 56 59 63 66 69 71 73 75 77 77 79 81 83 85 88 89 91 93 95 98 100 103 105 106 107 108 110 112 114 117 120
101 95 91 88 85 83 81 79 77 75 73 70 68 66 62 58 56 54 51 48 44 40 37 36 36 35 33 32 29 27 25 24 24 24 24 25 26 28 29 30 32 33 34 35 36 37 38 40 42 43 45 47 48 50 53 55 58 61 64 68 71 73 74 74 76 77 79 81 84 86 88 90 91 93 95 98 100 101 102 104 106 108 110 113 116
99 94 89 86 84 82 80 78 76 75 73 71 69 67 64 60 56 54 52 50 47 44 39 36 35 34 34 32 31 29 27 25 24 23 23 24 25 26 27 29 30 31 33 34 35 36 36 38 39 41 43 45 47 48 50 52 54 57 60 64 67 69 70 71 73 75 76 77 79 82 84 87 88 89 91 93 95 97 99 101 103 105 107 110 113
97 92 88 85 83 81 79 77 76 74 73 71 69 68 66 62 58 54 52 51 49 46 43 39 36 34 34 33 32 30 28 26 25 24 23 23 24 25 26 27 28 30 31 32 34 35 36 36 37 38 40 42 45 47 48 50 52 54 56 59 61 63 65 67 70 72 73 74 76 78 80 82 84 86 88 91 93 94 96 98 99 101 104 107 109
94 90 87 84 82 80 78 76 75 74 72 71 69 68 66 64 61 56 53 51 50 48 45 42 39 36 34 33 32 31 30 27 25 24 24 23 23 24 25 26 27 28 29 30 32 33 35 36 36 37 38 40 42 44 47 48 50 51 53 55 56 58 60 63 66 68 71 73 74 75 77 79 81 84 86 89 91 92 94 95 97 99 101 103 104
92 89 85 82 80 78 77 76 74 73 72 71 69 68 66 65 63 59 55 52 50 49 47 45 42 38 36 35 33 32 31 29 27 25 24 23 23 23 23 24 25 26 27 29 30 31 33 35 35 36 37 38 39 42 44 46 48 49 50 52 53 54 56 59 62 64 67 70 72 74 76 78 79 81 84 86 89 90 91 93 94 95 96 98 99
89 87 83 80 78 77 75 74 73 72 72 70 69 68 66 65 63 61 57 53 50 49 48 47 44 41 38 36 35 33 32 30 29 26 24 24 23 23 23 23 24 25 26 27 28 29 31 33 34 35 36 37 38 39 41 43 45 47 48 49 50 52 54 56 58 61 64 66 69 72 75 76 78 79 81 83 85 86 87 88 89 91 92 94 96
87 84 82 79 77 75 73 73 72 72 71 70 69 67 66 65 64 62 59 55 51 49 48 47 46 43 40 37 35 34 33 32 31 29 26 25 24 23 23 22 22 23 24 26 27 28 29 30 32 34 35 36 37 38 39 41 42 44 46 47 48 49 51 53 55 58 61 63 66 68 71 73 75 77 78 80 80 81 81 83 85 88 90 92 94
84 83 80 77 76 74 72 71 71 70 70 70 69 67 66 65 64 63 60 57 53 50 47 46 46 45 42 39 37 35 33 33 32 31 29 27 25 24 24 23 23 22 23 24 25 27 28 29 30 32 33 34 36 37 38 39 41 42 43 44 46 47 49 51 53 55 58 60 63 65 68 70 71 73 74 75 76 78 79 81 84 86 88 89 90
82 81 78 76 74 73 71 70 69 68 69 69 69 67 66 65 64 63 62 59 55 52 48 46 45 45 44 41 38 37 35 33 32 32 31 29 27 25 24 24 24 23 23 23 24 25 27 28 29 30 31 32 34 35 37 38 39 40 41 42 44 45 47 49 51 53 55 57 59 62 64 66 68 69 71 72 73 75 77 80 82 84 85 86 87
81 79 77 74 73 71 70 68 67 67 67 67 67 67 66 64 64 63 63 61 58 54 50 47 45 44 44 42 39 38 37 35 32 31 31 30 29 26 25 25 25 25 24 24 24 24 25 27 28 29 30 31 32 33 34 36 38 39 40 41 43 44 45 46 48 50 52 54 57 59 60 62 63 65 67 68 70 72 74 76 78 80 81 82 84
79 78 75 73 71 70 69 67 66 65 65 66 66 66 66 65 63 62 62 61 60 57 53 49 46 43 43 43 41 38 37 36 34 32 32 31 30 28 26 25 25 25 25 25 25 25 25 25 26 28 29 30 30 31 32 34 35 37 39 40 42 43 44 45 46 48 49 51 53 55 57 58 60 62 63 65 67 69 70 72 74 75 77 78 80
77 76 74 71 70 69 67 66 66 65 64 64 64 64 65 65 64 63 61 61 60 58 56 52 49 45 42 42 42 39 37 36 35 33 32 31 31 30 27 26 25 24 25 25 25 26 26 25 25 25 27 28 29 30 31 32 33 34 36 38 40 42 43 44 45 46 47 48 50 52 53 55 56 58 59 61 64 65 66 68 70 72 73 74 76
76 75 73 70 69 68 67 66 65 64 63 63 62 62 62 63 63 63 62 61 60 58 57 55 52 48 44 42 41 40 38 36 35 34 33 31 31 30 29 27 25 24 24 25 25 25 26 26 25 25 25 26 27 28 30 30 31 32 33 35 37 39 41 43 44 45 46 47 48 49 51 52 53 55 56 58 59 61 63 64 66 68 70 71 72
74 73 71 69 68 67 66 65 64 63 63 62 62 61 60 60 60 61 62 62 60 59 57 56 54 51 47 44 41 41 40 38 36 34 33 32 31 30 30 29 27 25 24 24 24 24 25 25 26 26 25 25 26 27 28 29 30 31 31 33 34 36 37 40 41 43 45 46 47 48 49 50 51 52 53 54 56 57 58 60 62 64 66 67 68
73 71 70 68 67 66 65 64 64 63 62 62 62 61 59 58 58 58 58 60 60 59 57 56 55 53 50 47 43 41 40 40 38 35 33 32 31 30 29 29 28 27 26 25 24 24 24 25 25 26 26 26 26 26 27 28 29 30 30 31 32 33 35 36 38 40 42 43 45 46 48 49 49 50 51 52 53 54 55 56 58 60 61 62 64
71 69 68 67 66 65 64 64 63 63 62 62 61 61 60 58 57 56 56 56 57 58 57 55 54 53 52 49 46 43 41 40 39 37 35 33 31 30 29 28 28 28 27 26 25 24 24 25 25 25 26 26 26 26 27 27 28 28 29 30 30 31 32 33 35 36 38 40 42 44 45 47 48 49 49 50 50 51 52 53 55 56 56 58 60
68 67 66 66 65 64 63 63 62 62 61 61 61 60 59 58 57 56 55 55 55 55 55 54 53 52 52 50 48 45 42 40 39 38 36 34 33 31 30 28 28 28 28 27 26 25 25 25 25 25 26 26 27 27 27 27 27 28 28 29 30 30 31 32 33 34 35 36 38 40 41 43 45 46 47 48 49 49 50 51 52 53 53 55 58
66 66 65 65 64 63 63 62 61 61 60 60 60 60 59 58 56 56 55 55 54 54 53 53 52 51 51 50 49 47 44 42 40 39 38 36 34 32 31 29 28 27 27 27 27 26 25 25 25 26 26 26 27 27 28 28 28 28 28 28 29 30 30 31 32 33 33 34 35 37 38 40 41 43 44 45 46 47 48 49 50 50 51 53 56
65 65 64 64 63 62 62 61 60 60 59 59 59 59 58 57 56 55 54 54 54 53 53 52 52 52 51 50 49 47 46 44 42 40 39 37 36 34 32 30 29 28 27 27 27 26 26 26 26 26 26 27 27 27 28 28 29 29 29 29 29 29 30 30 31 32 32 33 34 35 36 37 38 40 41 42 43 45 46 47 48 49 50 51 53
64 64 64 63 62 62 61 60 59 59 58 58 58 58 57 57 56 55 54 53 52 52 52 51 51 51 51 50 49 48 46 45 43 41 40 38 37 35 33 31 30 29 28 27 27 26 26 26 26 26 26 27 27 27 27 28 29 29 29 29 29 30 30 30 31 31 32 32 33 33 34 35 36 37 38 39 41 42 43 44 45 46 48 49 51
63 63 63 62 62 61 60 59 58 58 57 57 57 57 56 56 55 55 54 52 51 51 50 50 50 50 49 49 49 48 47 45 44 43 42 40 38 36 35 33 31 30 29 28 27 27 26 26 26 26 26 27 28 28 28 28 28 28 29 29 30 30 30 31 31 31 32 32 32 32 33 34 34 35 36 37 38 39 40 41 42 44 45 46 48
63 62 62 61 60 60 59 58 58 57 56 56 56 55 55 54 54 54 53 52 51 50 49 49 48 48 48 48 49 48 47 46 45 44 43 42 40 38 36 34 32 31 30 29 28 27 26 26 26 26 27 27 27 28 29 29 29 29 29 29 29 30 30 31 32 32 32 32 32 32 32 33 33 34 35 35 36 37 38 39 40 41 42 43 45
62 62 61 60 59 59 58 57 57 56 55 55 55 54 53 53 53 52 52 51 51 50 49 48 47 47 47 47 47 47 47 46 45 44 44 43 42 40 38 36 34 32 31 30 29 28 27 26 26 26 27 27 27 27 28 29 30 30 30 29 30 30 30 31 32 32 32 33 33 33 33 33 33 33 34 34 35 35 36 36 37 39 40 41 42
61 60 59 59 58 58 57 57 56 55 55 54 54 53 52 52 52 51 51 51 50 50 49 48 47 47 47 46 46 46 46 46 45 45 44 44 44 42 40 38 36 34 33 31 30 29 28 27 27 26 26 27 27 27 27 28 29 30 31 31 31 30 31 31 31 32 32 33 33 33 33 33 33 33 33 34 34 34 35 35 36 36 37 39 40
59 58 58 57 57 56 56 56 55 55 54 54 53 52 52 51 51 51 50 50 49 49 49 48 48 48 47 47 46 46 45 45 44 44 44 45 45 44 43 40 38 36 34 33 32 31 30 29 28 27 26 26 27 27 27 27 28 29 31 32 32 32 32 32 32 32 32 32 33 33 34 34 34 34 33 33 33 34 34 35 35 35 36 37 38
57 56 56 56 56 55 55 55 55 54 54 53 52 52 51 51 50 50 50 49 49 49 48 49 49 49 48 48 47 46 45 44 44 44 44 44 45 45 45 43 41 38 36 34 33 32 32 31 30 29 28 27 27 27 28 28 28 28 30 31 32 32 33 33 33 33 32 32 32 33 33 34 34 34 34 34 34 33 33 34 34 35 35 36 37
56 55 55 55 55 55 55 54 54 54 53 52 52 51 50 50 50 50 49 49 49 48 48 48 49 49 49 48 48 47 46 45 44 44 43 44 45 45 45 45 43 41 38 36 34 33 32 32 31 30 29 28 28 27 27 28 29 29 29 30 31 32 33 33 34 34 33 33 33 33 33 33 34 34 35 35 34 34 34 34 34 34 34 35 36
55 55 54 54 54 54 54 54 53 53 52 52 51 50 50 49 49 49 49 49 49 49 48 49 49 49 49 48 48 47 46 46 45 44 44 44 45 45 45 46 45 43 41 38 36 34 33 32 32 31 31 30 29 28 28 28 29 30 30 30 30 31 32 33 34 34 34 34 34 34 33 33 33 34 34 35 35 35 35 34 34 34 34 34 34
55 55 54 54 54 54 53 53 53 52 52 51 50 49 49 48 49 49 49 50 50 49 49 49 49 49 49 49 48 47 46 46 45 45 45 45 46 46 46 46 46 44 43 40 38 36 34 33 32 32 32 31 30 30 29 28 28 29 30 31 31 31 31 32 33 34 35 35 35 35 35 34 34 34 34 34 34 35 35 35 34 34 34 34 34
55 55 54 54 53 53 53 53 52 52 51 50 50 49 48 48 48 49 49 50 50 50 50 50 50 50 50 49 48 47 46 46 46 46 46 46 47 47 48 47 47 46 44 42 40 37 35 33 33 32 32 32 32 31 30 30 29 29 30 31 32 32 32 32 33 33 34 35 35 36 36 36 35 35 34 34 34 34 35 35 35 35 35 35 34
55 54 54 53 53 53 52 52 52 51 51 50 49 48 48 48 48 49 49 50 50 50 50 51 51 51 51 50 49 48 47 47 46 47 47 47 48 48 49 49 48 47 46 44 42 39 37 35 33 32 32 32 32 32 32 31 30 30 30 30 31 32 33 33 33 33 34 35 35 36 37 37 37 36 35 35 34 34 34 35 35 36 36 36 35
55 54 54 53 53 52 52 52 51 51 50 50 49 48 48 48 48 49 50 50 50 51 51 51 52 52 51 51 50 49 49 48 48 48 49 49 49 50 50 50 49 49 47 45 43 41 38 36 34 33 32 32 32 32 33 32 32 31 31 31 31 32 33 33 34 34 35 35 35 36 37 37 38 37 37 36 35 35 34 34 34 35 35 36 35
55 54 54 53 53 52 52 52 51 51 50 50 49 49 49 49 49 50 50 51 51 52 52 52 52 52 52 52 51 50 50 50 50 50 51 51 51 51 51 51 50 49 48 47 44 42 40 38 36 34 33 32 32 32 32 33 33 33 33 32 32 32 32 33 34 35 36 36 36 36 37 37 38 38 38 38 37 36 36 35 34 34 34 35 35
Wind_Direction
3 3 1 -0 359 358 355 351 347 342 338 333 329 325 322 317 311 304 297 292 287 281 275 271 268 266 262 258 254 252 249 246 243 241 240 240 241 241 241 241 240 240 240 239 239 238 239 239 239 240 239 239 238 238 238 239 239 239 238 237 237 237 237 237 236 236 237 238 238 238 239 239 239 239 239 239 239 239 240 240 240 240 241 241 241
2 3 2 1 360 358 356 354 350 346 341 337 333 329 325 322 316 311 304 297 292 287 282 276 271 268 265 262 257 253 250 248 245 243 241 239 239 240 241 242 242 242 242 241 240 240 239 239 239 240 240 240 239 238 238 238 239 239 239 238 238 237 237 237 237 236 236 237 238 238 239 239 239 239 239 239 239 239 240 240 241 241 241 241 241
1 2 2 2 1 359 357 355 352 349 345 341 337 333 329 325 320 315 309 303 297 293 288 283 276 271 267 265 262 256 252 250 247 244 243 241 240 239 239 240 240 241 241 241 241 241 240 239 238 238 239 240 240 239 239 238 239 239 239 239 238 238 237 237 237 237 236 237 237 237 238 239 239 239 239 239 239 239 239 240 240 241 241 242 242
360 1 2 2 1 0 359 356 354 351 348 344 340 337 332 328 324 320 314 307 302 298 294 289 284 277 271 267 265 261 256 252 249 247 245 243 242 240 239 238 238 239 239 240 240 240 240 239 238 238 238 238 239 239 239 239 239 239 239 239 239 238 238 237 236 236 236 237 237 237 237 238 238 239 239 239 239 240 240 240 240 240 241 242 242
358 359 1 2 2 1 359 358 355 353 350 347 344 340 336 332 328 323 318 313 307 302 298 294 290 284 277 271 267 263 259 255 251 249 247 245 244 242 240 239 237 237 238 239 239 239 239 239 239 238 238 237 238 238 239 239 238 238 238 239 239 239 238 237 237 236 235 236 237 237 237 237 238 238 239 239 239 240 240 240 240 240 240 241 241
357 358 360 1 1 1 -0 359 357 354 352 349 346 343 340 337 333 328 323 318 312 306 301 297 294 289 283 277 271 266 262 258 254 251 248 246 245 243 242 240 239 238 237 237 238 238 239 239 239 238 238 238 238 238 238 238 238 238 238 238 239 239 239 238 237 236 236 235 236 237 237 237 237 237 238 239 239 239 240 240 240 240 240 240 240
356 357 358 359 0 1 0 359 358 355 353 351 348 346 343 341 337 333 328 322 317 311 306 301 297 294 289 283 277 271 266 261 257 253 250 248 246 244 243 242 240 239 238 237 237 237 238 238 239 238 238 238 238 238 238 238 238 238 237 238 238 239 239 239 238 237 236 236 236 236 237 238 237 237 237 238 238 239 239 240 240 241 241 241 240
356 355 356 358 359 360 0 360 359 356 354 353 350 347 345 343 341 338 333 328 322 317 311 305 301 298 294 289 283 277 271 265 260 257 253 250 248 245 244 243 242 241 240 239 238 237 237 238 238 239 238 238 238 238 238 238 238 238 237 237 238 238 239 239 239 238 237 236 236 236 237 238 238 238 237 237 237 237 238 239 240 240 241 241 241
355 355 355 356 358 359 359 360 359 358 355 354 352 349 347 345 343 341 338 333 328 323 317 310 304 300 296 293 288 283 276 270 264 260 256 254 250 247 245 244 244 243 242 241 239 238 237 237 238 238 238 238 238 237 238 238 238 237 237 237 237 237 238 238 238 238 238 237 236 236 237 238 238 239 238 238 238 237 237 237 238 239 240 241 241
354 354 354 355 356 357 358 359 359 359 357 354 353 351 348 346 345 343 341 337 333 327 322 315 308 302 299 295 292 287 282 276 269 264 259 256 253 251 248 246 245 244 244 243 242 240 238 238 237 238 238 238 238 238 237 237 237 238 237 237 237 237 237 238 238 238 238 237 237 237 237 237 238 239 239 239 239 238 238 237 237 238 239 240 241
353 353 353 354 355 356 357 357 358 359 358 356 354 352 350 347 346 344 342 340 337 332 326 321 314 307 301 297 294 291 287 282 276 269 263 259 256 254 251 248 246 245 244 244 243 242 241 239 238 238 238 238 238 238 238 237 237 237 237 237 237 236 237 237 238 238 238 237 236 236 236 237 237 238 238 239 239 239 239 239 238 238 238 239 240
352 352 352 352 354 355 356 356 357 358 358 356 355 353 351 349 346 345 344 341 339 336 331 325 320 313 306 301 296 293 290 286 281 276 269 263 259 256 254 252 249 247 246 244 244 243 242 241 240 239 238 238 238 238 238 237 237 236 236 237 237 237 236 236 236 237 237 237 237 236 236 236 236 237 237 238 239 239 239 239 239 239 239 239 239
351 351 351 351 352 354 354 355 356 357 358 357 355 353 352 350 347 345 345 343 340 338 335 330 325 319 313 306 300 295 292 288 285 280 275 269 263 258 256 254 253 250 248 246 245 244 243 242 241 240 239 239 238 238 238 238 237 237 236 236 236 236 236 236 236 236 236 236 237 237 237 237 237 237 237 237 238 238 238 239 239 240 240 240 240
351 350 350 350 351 352 353 354 354 355 357 357 356 354 352 351 349 346 345 344 342 339 337 334 329 324 318 312 305 299 294 290 287 284 280 275 269 263 257 255 254 253 251 249 247 245 244 243 242 241 240 239 239 239 238 238 238 238 237 236 236 236 236 236 236 236 236 236 236 236 236 236 237 237 237 237 237 237 238 238 238 239 240 240 241
350 349 349 349 349 351 352 353 353 354 355 356 356 355 353 351 350 348 345 344 343 341 339 336 333 329 323 316 310 304 297 292 288 285 282 279 275 269 263 257 254 253 253 252 249 247 245 244 243 242 241 240 239 239 239 239 239 238 238 237 236 236 236 236 236 237 237 237 237 237 236 236 236 237 238 238 238 238 238 238 238 238 239 240 241
349 348 348 348 348 349 351 352 352 352 354 355 355 355 353 351 350 349 347 344 343 342 340 338 336 332 327 321 315 309 303 296 291 287 283 281 278 274 270 263 257 253 252 253 252 249 246 244 244 243 242 241 240 239 239 239 239 239 239 239 238 237 236 236 236 236 236 236 237 237 237 237 237 238 238 238 238 239 239 238 239 239 239 240 241
348 348 347 347 348 348 349 350 351 351 352 353 354 355 354 352 350 349 348 346 344 343 341 339 337 335 332 327 320 313 308 301 295 289 285 281 279 276 273 269 264 257 252 251 252 252 250 247 245 244 243 242 241 240 239 239 239 239 240 240 240 239 238 237 236 236 236 236 236 236 237 237 238 238 239 239 239 239 239 239 240 240 240 240 240
347 347 347 346 347 347 348 349 350 350 351 352 353 354 354 353 351 349 348 347 345 344 342 340 338 336 334 331 325 318 312 306 299 294 288 283 279 276 274 271 268 264 258 253 250 250 251 250 248 246 244 243 242 241 240 239 239 239 239 240 240 240 240 239 238 237 236 236 236 237 237 237 237 238 239 240 240 240 240 240 240 240 240 240 241
345 346 346 345 346 346 347 348 349 349 349 350 351 352 353 354 352 350 348 347 346 344 344 341 339 337 336 333 330 324 317 310 304 298 293 287 282 278 274 271 269 267 264 259 254 250 249 250 250 249 247 245 243 242 241 240 240 239 239 239 240 240 241 241 241 240 238 238 237 238 238 238 238 238 238 239 240 241 241 241 241 241 241 241 241
344 345 345 344 345 345 346 347 348 349 349 349 350 351 352 353 353 351 349 348 347 345 344 343 341 338 336 335 333 329 323 316 309 303 297 292 286 280 275 272 270 267 265 263 260 255 251 248 248 249 249 248 246 244 242 241 240 240 240 240 240 240 240 241 241 242 241 240 239 238 239 239 239 239 239 239 239 239 240 240 240 241 241 241 242
343 343 344 344 344 345 345 346 348 348 348 348 349 349 350 351 352 352 350 348 347 346 344 343 342 340 338 336 335 332 328 322 315 309 302 296 290 285 279 273 270 267 265 264 262 259 256 252 248 247 248 249 249 248 245 243 241 240 240 240 241 241 240 240 241 241 242 241 241 240 239 239 239 239 239 239 239 239 239 239 239 240 240 240 241
342 342 343 343 343 344 344 345 347 347 347 348 348 348 349 349 350 351 351 349 348 347 345 343 342 341 339 338 336 335 332 328 321 314 307 300 294 289 284 278 272 268 265 263 262 260 258 256 253 249 247 247 248 249 249 247 245 242 240 240 240 240 240 240 240 240 240 241 241 240 240 239 238 238 238 239 239 239 239 239 239 239 239 240 241
341 341 342 342 342 343 344 344 346 347 347 347 347 347 348 348 349 350 351 351 349 348 346 344 342 341 340 339 337 336 334 331 327 320 313 306 299 293 288 283 277 271 266 264 262 260 259 258 256 253 251 249 248 248 248 249 249 247 244 242 240 239 238 239 239 239 239 239 240 240 240 240 239 238 238 238 239 239 239 240 240 240 240 241 241
340 340 341 341 341 342 343 344 345 346 346 346 346 347 347 347 348 348 349 350 350 349 347 345 343 341 340 339 338 336 335 333 330 326 319 312 305 299 293 287 282 278 272 267 263 260 259 258 256 255 253 252 250 249 248 248 249 249 248 246 243 241 239 238 238 238 238 238 239 239 240 240 240 240 239 240 240 240 240 241 241 242 242 242 242
339 339 340 340 340 341 342 343 344 345 345 345 346 346 346 346 347 347 348 348 349 350 349 347 345 342 341 340 338 337 336 335 333 330 325 319 311 305 299 293 287 282 277 273 268 263 260 258 256 254 253 252 252 251 251 250 249 249 248 247 245 244 242 241 239 238 238 238 238 238 239 240 240 241 241 241 242 242 242 242 242 242 242 242 243
338 338 339 339 339 340 342 342 343 344 345 345 345 345 345 345 345 346 347 347 348 349 350 349 346 344 341 340 338 337 336 336 334 332 329 324 317 311 305 299 293 287 281 277 273 268 264 260 257 254 252 251 251 250 251 251 251 250 250 248 247 245 243 242 241 240 240 239 238 238 238 239 239 240 241 241 242 242 242 241 241 241 241 242 242
337 337 338 338 338 339 341 342 343 343 344 344 344 344 344 344 344 345 346 346 346 347 349 349 348 345 343 341 339 337 335 336 335 332 330 327 322 316 310 304 299 294 288 282 277 272 268 265 260 257 254 251 250 249 249 250 251 251 251 250 249 247 245 244 243 242 241 241 241 240 240 239 239 239 239 240 240 240 240 241 241 241 242 242 242
336 336 337 337 337 338 339 340 341 343 343 343 343 343 343 344 344 344 344 345 345 345 346 348 348 346 344 342 341 338 335 335 335 333 331 328 325 320 314 308 303 298 294 289 282 276 270 266 263 260 257 253 251 249 248 248 249 250 250 251 250 249 248 247 245 244 243 243 243 243 242 241 241 240 240 239 239 239 239 240 240 241 242 242 243
335 335 336 336 336 337 338 339 340 342 343 343 343 343 343 343 343 343 343 343 344 344 344 346 347 348 346 344 342 340 337 334 334 333 331 329 327 323 318 312 305 301 297 293 289 283 276 269 264 261 258 256 254 251 250 248 247 248 249 249 250 250 249 248 248 247 246 245 244 244 244 243 242 242 241 241 240 240 239 239 240 240 240 240 241
334 334 334 335 335 336 337 338 339 340 342 342 343 343 342 342 342 342 342 343 343 342 342 343 344 346 347 345 343 341 339 336 333 332 331 329 327 325 321 315 309 303 298 295 292 288 283 277 270 264 260 257 255 254 252 251 249 247 247 247 248 249 249 249 249 248 247 246 246 246 245 245 244 243 242 242 241 241 240 240 240 240 240 239 240
333 333 333 334 335 335 336 337 338 339 340 341 341 342 342 342 342 341 341 342 342 342 341 341 342 343 345 346 344 343 340 337 334 332 330 329 327 325 323 318 313 307 300 296 293 290 287 283 278 273 268 263 258 255 253 252 251 249 248 246 246 247 247 248 249 249 248 248 247 247 246 246 246 245 244 243 243 242 241 240 240 240 240 240 240
332 332 332 333 334 335 336 337 337 338 339 340 340 341 342 342 342 341 341 341 341 341 340 340 340 341 342 344 345 344 342 339 336 332 330 328 327 325 323 320 316 311 304 299 294 291 289 285 282 278 275 270 265 260 255 252 251 251 250 248 247 246 246 247 247 248 248 249 248 248 247 247 247 246 246 245 244 244 243 242 241 241 241 240 240
331 331 331 332 333 334 335 336 336 337 338 338 339 339 340 341 342 341 341 340 340 340 340 339 339 339 340 341 343 343 343 340 338 334 331 328 326 325 323 321 318 314 309 303 298 293 290 287 284 281 278 274 271 266 261 256 253 251 251 250 250 249 248 248 248 248 248 248 248 248 248 247 247 247 246 246 245 245 244 243 243 243 242 242 241
330 330 330 331 332 333 334 335 335 336 337 337 337 338 338 340 341 341 341 340 339 339 339 339 338 338 338 339 340 341 342 341 339 336 332 329 326 324 322 320 318 315 311 307 302 297 292 289 286 284 281 278 275 271 268 263 259 255 252 251 250 250 250 250 249 249 249 248 248 248 249 249 248 248 247 247 246 246 245 244 244 244 243 243 242
329 329 330 330 331 332 333 334 334 335 335 336 336 336 337 338 340 340 340 340 339 339 339 338 337 336 337 337 338 339 340 340 339 337 334 331 327 324 322 320 318 316 313 309 305 301 296 292 288 286 284 281 279 276 273 269 265 261 257 254 252 251 250 250 250 250 251 250 250 250 250 249 249 249 248 248 247 246 246 245 244 244 243 243 242
328 328 329 330 331 332 333 333 333 334 334 335 334 335 335 337 338 339 339 339 339 339 338 337 336 336 335 335 336 336 337 338 338 338 335 332 329 325 322 320 318 316 313 310 307 304 300 295 291 287 285 282 280 278 276 273 270 267 263 259 256 253 252 251 251 251 250 251 251 251 251 251 250 250 250 249 249 248 247 246 245 244 243 242 243
327 328 328 329 330 331 332 332 332 333 333 333 333 333 334 335 337 338 338 338 338 338 338 337 336 335 335 334 334 335 335 335 336 337 336 334 330 327 323 320 317 315 313 311 309 306 302 298 294 290 286 283 281 279 277 275 273 271 268 265 261 258 255 253 252 252 252 251 251 251 251 251 251 251 251 250 250 249 248 247 246 244 243 242 243
326 327 327 328 329 330 330 331 331 332 332 332 332 332 333 334 336 337 337 337 337 337 337 337 336 335 334 333 333 333 333 333 334 335 335 334 332 328 325 321 317 315 312 311 309 307 303 300 296 292 288 285 282 279 277 275 273 271 270 268 265 263 260 257 254 253 253 252 252 251 251 251 251 251 251 251 250 250 249 248 246 245 244 243 243
325 326 326 327 328 328 329 330 330 330 331 331 331 331 332 333 334 335 335 336 336 336 337 337 336 335 334 332 332 332 332 332 332 333 333 334 333 330 326 322 318 315 312 309 308 306 304 300 296 293 289 286 283 281 278 275 273 271 269 268 267 266 264 261 259 256 254 253 252 252 252 252 252 252 252 251 251 250 250 249 248 246 245 244 243
324 325 325 326 327 327 328 329 329 329 330 330 330 330 331 332 333 334 334 335 335 336 336 336 336 335 334 332 331 330 330 330 330 331 331 332 332 331 328 324 320 315 311 308 306 304 303 301 297 293 289 287 284 282 279 277 275 273 270 268 266 266 265 264 262 260 258 255 254 253 252 252 252 252 252 251 251 251 250 250 249 248 247 245 244
323 324 324 325 326 326 327 327 328 328 329 328 329 329 330 331 332 332 333 334 334 335 335 335 335 335 333 332 330 330 329 329 329 329 330 330 330 330 329 326 322 317 312 308 305 303 301 300 298 295 291 287 284 282 280 278 277 276 273 271 268 266 265 264 263 262 260 258 256 255 253 252 251 251 250 250 250 250 250 250 250 249 248 247 246
323 323 324 324 325 325 326 327 327 327 327 327 328 329 330 330 331 331 332 333 333 334 334 334 334 334 333 332 330 329 328 328 328 328 328 328 328 329 329 327 324 320 314 310 306 302 300 299 297 296 293 289 286 282 280 278 277 275 275 273 271 269 266 264 263 262 261 260 259 257 255 254 252 251 250 249 249 249 249 249 249 249 249 248 247
322 323 323 324 324 325 325 326 326 326 326 327 327 328 329 330 330 331 331 332 333 333 333 334 333 333 332 331 330 329 328 327 327 327 327 327 327 327 327 327 325 322 317 312 307 303 300 298 297 295 294 292 288 284 281 278 275 274 273 272 272 271 269 267 265 263 262 261 260 259 258 256 255 253 251 249 248 248 248 248 248 248 248 248 248
323 323 323 323 324 324 325 325 325 325 325 326 327 328 329 329 329 330 331 331 332 333 333 333 333 332 332 331 329 328 328 327 326 326 325 325 325 325 325 325 325 323 319 314 309 304 301 298 296 295 294 292 290 287 283 279 276 273 272 271 270 270 270 269 267 265 264 262 261 259 259 258 257 255 254 252 250 249 248 247 247 247 247 247 247
323 324 323 323 324 324 324 324 324 324 325 326 327 327 328 328 329 330 330 330 331 332 332 332 332 332 331 330 329 328 327 326 325 325 324 324 324 324 324 324 323 322 320 316 311 306 301 298 296 294 293 292 291 289 286 282 278 275 272 270 269 268 268 268 268 267 266 264 262 261 260 258 257 256 256 255 253 251 250 248 248 247 246 245 245
324 324 324 323 323 323 323 323 323 324 325 326 326 327 328 328 328 329 329 330 330 331 332 332 331 331 330 329 328 328 327 326 325 324 323 323 323 322 322 322 322 321 320 317 314 308 303 299 296 294 292 291 291 289 287 285 282 278 274 272 269 268 266 266 266 266 266 265 263 262 261 259 258 257 256 255 254 253 252 251 250 249 248 247 246
324 324 324 323 323 323 323 323 324 324 325 326 326 327 327 328 328 329 329 329 330 330 331 331 330 329 329 328 327 326 326 325 324 323 323 322 322 322 321 321 320 320 319 317 314 310 305 300 296 293 292 291 290 289 288 286 284 281 277 274 271 269 267 266 265 264 265 265 264 263 262 261 259 258 256 255 253 253 252 252 251 251 250 249 248
325 324 324 324 324 323 323 324 324 325 325 325 326 326 327 328 328 328 328 328 329 329 329 329 329 328 328 327 326 325 325 324 323 322 322 322 322 321 320 320 319 318 318 316 314 311 307 302 297 294 292 290 289 289 288 287 285 283 280 277 274 271 269 267 265 264 263 263 263 263 262 261 260 259 258 256 254 253 251 250 250 250 249 249 248
325 325 325 324 324 324 324 324 324 324 325 325 325 326 327 327 328 327 327 327 328 328 328 328 328 327 327 326 325 325 324 323 322 322 321 321 321 321 320 319 318 317 316 315 314 311 308 303 298 294 291 289 289 288 288 287 286 284 282 279 276 273 270 268 266 265 264 262 262 262 262 262 261 260 258 257 256 255 252 250 249 248 248 248 248
326 326 325 325 324 324 324 324 324 324 324 324 325 326 326 327 327 327 327 326 327 327 327 327 327 326 326 325 325 324 323 322 322 321 321 321 320 320 319 318 317 316 315 314 313 311 308 304 300 295 292 289 288 287 287 287 286 285 283 281 278 275 272 269 267 265 264 263 262 261 261 261 261 260 259 258 257 256 255 253 250 249 248 247 247
326 326 325 325 324 324 324 324 323 323 324 324 325 326 326 326 326 326 326 326 326 326 326 326 325 325 325 324 323 323 322 322 321 321 320 320 320 319 318 317 317 315 314 313 312 310 307 304 301 297 293 290 288 286 286 286 285 285 285 283 280 278 275 271 268 266 264 263 262 261 260 260 260 260 260 259 258 257 256 255 254 251 249 248 247
Height
10103 10094 10085 10078 10071 10065 10060 10054 10048 10042 10037 10032 10027 10022 10018 10015 10011 10008 10005 10002 10000 9999 9997 9996 9994 9994 9993 9993 9993 9993 9994 9995 9997 9999 10001 10003 10005 10007 10012 10017 10020 10024 10028 10034 10039 10043 10049 10055 10059 10065 10070 10076 10084 10090 10096 10102 10108 10113 10120 10130 10140 10150 10159 10166 10178 10192 10196 10198 10207 10216 10220 10225 10232 10240 10250 10257 10264 10271 10277 10282 10289 10296 10302 10309 10314
10101 10093 10084 10076 10068 10062 10056 10051 10045 10040 10034 10029 10024 10018 10013 10009 10006 10003 10000 9996 9994 9992 9991 9989 9987 9986 9985 9984 9984 9984 9985 9986 9987 9989 9991 9992 9995 9998 10002 10007 10010 10014 10018 10022 10027 10031 10037 10043 10047 10050 10054 10060 10068 10075 10081 10086 10091 10096 10104 10114 10124 10133 10142 10149 10160 10172 10178 10181 10190 10198 10201 10205 10214 10224 10232 10239 10247 10255 10260 10265 10271 10278 10285 10292 10299
10100 10092 10083 10075 10067 10059 10053 10047 10042 10037 10032 10026 10021 10015 10010 10005 10001 9998 9994 9991 9988 9985 9984 9982 9981 9979 9978 9976 9976 9976 9976 9977 9978 9980 9981 9983 9985 9989 9992 9996 9999 10003 10006 10010 10014 10019 10024 10028 10032 10035 10039 10045 10053 10060 10066 10071 10075 10082 10090 10098 10105 10114 10122 10130 10141 10153 10160 10165 10172 10178 10181 10187 10197 10208 10215 10221 10228 10236 10243 10249 10254 10261 10269 10275 10282
10098 10091 10082 10074 10066 10058 10051 10045 10039 10034 10029 10023 10018 10013 10007 10002 9997 9993 9990 9986 9983 9980 9977 9976 9974 9973 9971 9970 9969 9969 9969 9969 9970 9971 9973 9975 9977 9979 9981 9984 9987 9990 9993 9997 10001 10005 10009 10013 10016 10020 10026 10031 10038 10044 10050 10055 10061 10069 10076 10081 10086 10094 10102 10110 10122 10134 10142 10148 10154 10160 10164 10169 10179 10189 10196 10202 10210 10217 10224 10231 10237 10245 10252 10258 10264
10098 10089 10081 10073 10065 10057 10050 10043 10037 10031 10025 10020 10015 10010 10004 9999 9994 9989 9985 9982 9978 9975 9972 9969 9968 9966 9964 9963 9962 9961 9962 9962 9962 9963 9965 9966 9968 9970 9972 9974 9977 9979 9982 9985 9988 9992 9996 9999 10003 10007 10013 10019 10023 10028 10033 10039 10046 10054 10060 10064 10069 10077 10084 10091 10103 10115 10124 10131 10138 10142 10145 10150 10160 10171 10177 10183 10192 10199 10205 10212 10219 10227 10235 10241 10246
10097 10088 10080 10071 10063 10056 10048 10041 10034 10028 10022 10017 10011 10006 10001 9996 9991 9986 9982 9978 9974 9970 9967 9964 9962 9960 9958 9957 9956 9955 9955 9955 9955 9956 9957 9958 9959 9961 9963 9964 9967 9969 9971 9974 9977 9981 9984 9988 9991 9996 10001 10006 10009 10013 10018 10023 10030 10038 10044 10049 10053 10060 10067 10075 10085 10097 10107 10116 10123 10125 10127 10133 10143 10153 10159 10165 10174 10182 10189 10195 10200 10208 10216 10223 10228
10095 10086 10078 10069 10061 10054 10046 10039 10032 10025 10020 10014 10008 10003 9998 9993 9988 9983 9978 9974 9970 9966 9963 9959 9956 9954 9953 9951 9950 9949 9948 9948 9949 9949 9949 9950 9951 9952 9954 9955 9957 9959 9961 9964 9967 9970 9974 9977 9981 9985 9989 9993 9997 10001 10005 10010 10016 10022 10029 10034 10038 10044 10052 10060 10068 10078 10090 10101 10108 10110 10113 10117 10125 10134 10141 10146 10154 10164 10172 10180 10186 10191 10196 10201 10207
10093 10084 10076 10067 10059 10052 10045 10037 10030 10023 10016 10011 10005 9999 9994 9989 9984 9979 9975 9970 9967 9963 9959 9956 9952 9949 9947 9946 9944 9943 9942 9942 9942 9942 9942 9942 9943 9944 9945 9947 9948 9950 9952 9955 9958 9961 9964 9967 9970 9974 9978 9982 9985 9989 9994 9997 10002 10009 10014 10020 10024 10030 10036 10044 10051 10061 10072 10083 10092 10096 10099 10101 10106 10116 10124 10128 10135 10147 10157 10164 10169 10172 10173 10177 10184
10091 10082 10073 10065 10057 10049 10042 10036 10028 10021 10014 10007 10002 9996 9991 9986 9981 9976 9972 9967 9963 9959 9956 9952 9949 9945 9943 9940 9939 9937 9936 9936 9936 9936 9936 9936 9935 9936 9937 9938 9940 9942 9944 9946 9949 9952 9955 9958 9961 9964 9967 9971 9974 9978 9982 9986 9990 9995 10000 10006 10011 10016 10022 10028 10036 10045 10055 10065 10075 10081 10084 10087 10092 10100 10107 10112 10119 10131 10138 10140 10145 10151 10153 10156 10165
10089 10080 10071 10063 10055 10047 10040 10033 10026 10019 10012 10005 9999 9993 9987 9982 9977 9973 9968 9964 9960 9956 9952 9949 9945 9942 9939 9936 9934 9932 9931 9930 9930 9930 9930 9929 9929 9929 9929 9930 9931 9933 9935 9937 9940 9943 9946 9949 9952 9954 9957 9960 9964 9967 9971 9975 9979 9983 9987 9993 9998 10003 10008 10014 10020 10028 10037 10047 10057 10064 10068 10073 10079 10084 10089 10095 10102 10110 10115 10119 10127 10134 10135 10137 10146
10087 10078 10069 10061 10053 10045 10037 10030 10024 10017 10010 10003 9996 9990 9984 9979 9974 9970 9965 9961 9957 9953 9949 9945 9942 9939 9935 9932 9930 9927 9926 9925 9924 9924 9924 9923 9923 9922 9922 9923 9924 9925 9926 9929 9931 9934 9937 9940 9943 9946 9948 9951 9954 9957 9960 9964 9968 9972 9976 9981 9986 9991 9996 10001 10007 10013 10021 10030 10039 10045 10051 10058 10063 10066 10070 10076 10083 10090 10098 10104 10112 10117 10117 10120 10130
10085 10076 10067 10059 10051 10043 10035 10028 10021 10014 10008 10001 9994 9988 9982 9976 9971 9967 9962 9957 9953 9949 9945 9942 9938 9935 9932 9929 9926 9924 9921 9920 9919 9918 9918 9918 9917 9917 9916 9916 9917 9917 9919 9920 9922 9925 9928 9931 9934 9937 9939 9942 9944 9947 9950 9953 9957 9961 9965 9970 9974 9979 9984 9989 9993 9999 10006 10015 10022 10028 10034 10041 10044 10047 10052 10058 10066 10074 10082 10089 10096 10100 10101 10106 10115
10083 10073 10065 10057 10049 10041 10033 10026 10019 10012 10005 9998 9991 9985 9979 9974 9968 9963 9959 9955 9950 9946 9942 9938 9935 9931 9928 9925 9923 9920 9918 9916 9914 9913 9912 9912 9912 9912 9911 9910 9910 9911 9912 9913 9915 9917 9919 9922 9925 9928 9930 9933 9935 9938 9941 9944 9947 9951 9955 9959 9962 9966 9971 9975 9980 9985 9992 10000 10006 10013 10020 10024 10027 10031 10036 10041 10048 10056 10064 10072 10079 10084 10086 10090 10100
10081 10071 10062 10054 10046 10039 10031 10023 10016 10009 10002 9996 9989 9982 9976 9971 9966 9960 9956 9952 9947 9942 9938 9934 9931 9928 9925 9922 9919 9916 9914 9912 9910 9908 9907 9906 9906 9906 9906 9905 9904 9904 9905 9906 9908 9910 9911 9913 9915 9918 9921 9924 9927 9930 9932 9935 9938 9941 9944 9948 9951 9955 9960 9964 9969 9974 9980 9986 9991 9997 10002 10007 10011 10015 10019 10024 10030 10039 10047 10055 10062 10066 10068 10074 10084
10079 10070 10061 10052 10044 10036 10029 10022 10014 10007 10001 9994 9987 9981 9974 9968 9963 9958 9952 9948 9944 9939 9935 9931 9927 9924 9921 9918 9915 9912 9910 9908 9906 9904 9902 9901 9900 9900 9900 9900 9899 9899 9898 9899 9900 9902 9904 9905 9907 9909 9912 9915 9918 9921 9924 9927 9929 9931 9934 9938 9942 9946 9950 9953 9958 9963 9969 9974 9979 9983 9987 9992 9996 10000 10003 10009 10016 10024 10031 10038 10043 10047 10053 10061 10069
10078 10068 10060 10051 10042 10034 10027 10019 10012 10005 9998 9992 9986 9979 9972 9966 9961 9955 9950 9945 9941 9936 9932 9928 9924 9920 9917 9914 9911 9908 9906 9904 9902 9900 9898 9896 9895 9894 9894 9894 9894 9894 9893 9893 9893 9894 9896 9898 9899 9901 9903 9906 9909 9912 9915 9917 9920 9922 9925 9928 9932 9936 9939 9943 9947 9952 9957 9962 9967 9971 9975 9980 9984 9987 9991 9996 10003 10009 10015 10022 10029 10035 10043 10051 10054
10076 10067 10058 10049 10040 10032 10024 10017 10010 10003 9996 9989 9984 9978 9971 9964 9958 9953 9948 9943 9938 9933 9929 9924 9921 9917 9913 9910 9908 9905 9902 9900 9898 9896 9894 9893 9891 9889 9888 9888 9888 9888 9888 9888 9887 9888 9889 9890 9891 9893 9895 9898 9900 9903 9905 9908 9911 9914 9917 9920 9923 9925 9928 9933 9938 9942 9946 9950 9955 9958 9963 9968 9972 9976 9980 9984 9989 9994 10001 10010 10017 10023 10030 10035 10037
10073 10065 10056 10047 10038 10030 10022 10014 10007 10000 9993 9987 9981 9975 9969 9962 9956 9950 9945 9940 9936 9932 9926 9921 9917 9913 9910 9906 9904 9901 9899 9896 9894 9892 9890 9888 9887 9886 9884 9883 9882 9882 9882 9882 9882 9882 9882 9883 9884 9886 9887 9889 9891 9894 9896 9899 9902 9905 9908 9911 9914 9916 9919 9925 9929 9933 9937 9941 9944 9947 9951 9956 9961 9965 9969 9973 9977 9983 9991 9999 10004 10009 10015 10019 10021
10069 10062 10054 10045 10036 10028 10020 10012 10005 9997 9991 9984 9978 9972 9967 9961 9954 9948 9942 9937 9932 9929 9924 9919 9914 9910 9906 9903 9899 9897 9895 9892 9890 9888 9886 9884 9883 9882 9880 9879 9878 9877 9876 9876 9876 9876 9877 9877 9878 9879 9880 9881 9883 9886 9888 9890 9893 9896 9899 9902 9904 9907 9912 9918 9921 9924 9928 9932 9935 9938 9941 9945 9950 9955 9959 9962 9966 9973 9981 9986 9990 9995 10001 10004 10005
10066 10058 10051 10042 10034 10026 10018 10010 10002 9995 9988 9981 9975 9968 9963 9958 9952 9946 9939 9933 9928 9924 9921 9917 9912 9908 9904 9900 9896 9893 9890 9888 9886 9884 9882 9880 9878 9877 9876 9875 9873 9872 9871 9871 9870 9870 9871 9871 9872 9872 9873 9874 9875 9877 9880 9882 9885 9888 9890 9892 9895 9900 9906 9910 9912 9914 9919 9922 9926 9929 9932 9935 9941 9945 9948 9951 9955 9961 9967 9971 9975 9981 9986 9987 9989
10063 10055 10047 10039 10030 10022 10015 10007 10000 9992 9985 9979 9972 9965 9959 9954 9949 9944 9937 9931 9925 9920 9916 9913 9909 9905 9901 9897 9893 9889 9886 9884 9882 9880 9878 9876 9874 9873 9872 9870 9869 9868 9867 9866 9865 9865 9865 9865 9866 9867 9867 9868 9868 9870 9871 9874 9876 9879 9881 9884 9888 9893 9898 9901 9903 9906 9909 9912 9915 9919 9922 9925 9930 9934 9936 9939 9942 9947 9951 9956 9961 9966 9969 9971 9973
10059 10051 10044 10036 10028 10019 10012 10004 9997 9989 9982 9976 9969 9963 9957 9951 9945 9940 9934 9928 9922 9917 9912 9908 9905 9901 9897 9893 9890 9886 9882 9880 9877 9875 9873 9872 9870 9868 9867 9866 9865 9864 9862 9861 9860 9860 9859 9859 9860 9861 9861 9862 9862 9863 9864 9866 9868 9871 9874 9877 9881 9885 9889 9891 9894 9897 9899 9901 9904 9907 9910 9913 9917 9920 9923 9925 9928 9932 9938 9942 9947 9950 9953 9957 9961
10055 10047 10040 10033 10025 10017 10009 10001 9993 9986 9979 9973 9966 9960 9954 9948 9942 9937 9931 9925 9919 9914 9909 9905 9901 9897 9893 9889 9886 9882 9879 9876 9873 9871 9869 9867 9865 9864 9862 9861 9860 9859 9858 9857 9856 9855 9855 9854 9854 9855 9855 9856 9856 9857 9858 9859 9861 9863 9866 9869 9873 9876 9879 9881 9883 9886 9888 9890 9893 9895 9897 9901 9905 9908 9911 9913 9916 9920 9925 9929 9933 9938 9943 9948 9951
10051 10043 10036 10029 10022 10014 10006 9998 9990 9983 9976 9969 9963 9957 9951 9945 9940 9934 9928 9923 9917 9911 9906 9901 9897 9893 9890 9886 9881 9878 9875 9872 9869 9867 9865 9863 9861 9859 9858 9857 9855 9854 9853 9852 9852 9851 9850 9849 9849 9849 9849 9850 9850 9851 9852 9853 9854 9856 9858 9861 9864 9867 9869 9872 9874 9876 9878 9880 9883 9885 9887 9890 9894 9897 9900 9902 9906 9911 9917 9921 9925 9930 9933 9936 9937
10047 10039 10032 10025 10018 10011 10004 9995 9987 9980 9973 9966 9959 9953 9947 9942 9936 9931 9925 9919 9914 9909 9903 9898 9893 9889 9886 9882 9878 9874 9871 9867 9864 9862 9860 9858 9856 9855 9853 9852 9851 9850 9848 9848 9847 9846 9845 9845 9845 9844 9844 9844 9844 9845 9845 9846 9847 9849 9851 9854 9856 9859 9860 9862 9865 9866 9868 9870 9873 9875 9877 9881 9884 9887 9890 9894 9899 9905 9910 9913 9916 9918 9919 9922 9925
10042 10035 10028 10021 10013 10007 10000 9993 9985 9977 9970 9963 9956 9950 9944 9938 9932 9927 9922 9916 9910 9905 9901 9896 9891 9886 9882 9879 9875 9871 9867 9864 9860 9857 9855 9853 9852 9850 9849 9847 9846 9845 9844 9843 9842 9841 9840 9840 9840 9839 9839 9839 9839 9839 9839 9840 9841 9842 9844 9846 9848 9850 9852 9854 9856 9857 9858 9860 9863 9866 9868 9870 9874 9877 9881 9886 9890 9894 9898 9900 9901 9903 9906 9910 9914
10036 10030 10023 10016 10009 10002 9996 9989 9982 9975 9967 9960 9953 9947 9941 9935 9928 9923 9918 9913 9908 9902 9897 9893 9889 9884 9880 9876 9871 9867 9864 9861 9858 9854 9851 9849 9847 9845 9844 9842 9841 9840 9839 9839 9838 9837 9836 9835 9834 9834 9834 9834 9834 9834 9834 9834 9835 9835 9837 9838 9840 9842 9844 9845 9847 9849 9850 9852 9854 9856 9858 9862 9865 9868 9871 9875 9878 9881 9884 9886 9888 9891 9895 9899 9903
10031 10024 10018 10011 10004 9998 9992 9985 9979 9973 9965 9958 9951 9944 9938 9932 9926 9920 9914 9909 9904 9899 9894 9890 9886 9881 9876 9873 9869 9864 9860 9856 9854 9851 9848 9845 9843 9841 9839 9838 9836 9835 9834 9833 9833 9832 9832 9831 9830 9829 9829 9829 9829 9829 9829 9829 9829 9830 9830 9831 9832 9834 9835 9837 9838 9841 9843 9844 9846 9847 9850 9853 9856 9858 9861 9865 9867 9869 9872 9875 9878 9881 9885 9889 9893
10024 10018 10012 10006 10000 9993 9987 9981 9975 9969 9963 9956 9948 9941 9934 9928 9923 9918 9912 9906 9901 9895 9890 9886 9882 9879 9874 9869 9866 9862 9858 9853 9850 9847 9844 9841 9839 9837 9835 9833 9832 9830 9829 9828 9827 9827 9827 9826 9826 9825 9824 9823 9823 9823 9823 9823 9824 9824 9825 9825 9826 9827 9828 9829 9830 9832 9834 9836 9837 9839 9841 9844 9846 9849 9852 9854 9856 9859 9862 9865 9867 9870 9874 9878 9881
10018 10012 10006 10001 9995 9988 9982 9976 9970 9964 9959 9953 9947 9940 9931 9923 9918 9913 9908 9903 9898 9893 9887 9882 9878 9875 9871 9867 9863 9859 9855 9851 9847 9844 9841 9838 9835 9833 9831 9830 9828 9826 9825 9824 9823 9822 9821 9821 9821 9820 9819 9819 9818 9818 9817 9818 9818 9818 9819 9819 9820 9820 9821 9822 9823 9824 9826 9828 9829 9831 9833 9835 9837 9840 9842 9844 9846 9849 9852 9855 9857 9860 9863 9866 9868
10012 10005 10000 9994 9989 9983 9977 9971 9965 9959 9954 9949 9944 9939 9931 9923 9915 9908 9903 9899 9894 9889 9884 9879 9874 9870 9867 9864 9860 9856 9852 9849 9845 9841 9838 9835 9832 9829 9827 9825 9824 9822 9820 9819 9818 9817 9816 9815 9815 9814 9814 9814 9813 9813 9812 9812 9812 9812 9813 9813 9813 9814 9814 9815 9816 9817 9818 9820 9821 9822 9824 9826 9828 9830 9833 9835 9837 9840 9843 9846 9848 9850 9852 9855 9857
10005 9999 9993 9988 9982 9977 9971 9965 9960 9954 9949 9944 9939 9935 9930 9923 9915 9907 9899 9894 9890 9886 9881 9876 9871 9866 9862 9859 9856 9852 9849 9845 9842 9838 9835 9832 9829 9826 9823 9821 9819 9818 9816 9815 9814 9813 9812 9810 9810 9809 9809 9809 9808 9808 9807 9807 9806 9806 9806 9807 9807 9807 9808 9808 9809 9810 9811 9812 9813 9815 9816 9817 9819 9821 9823 9825 9828 9830 9833 9836 9838 9840 9842 9846 9848
9998 9993 9987 9981 9976 9970 9965 9959 9954 9948 9943 9938 9934 9929 9925 9920 9915 9908 9900 9892 9886 9882 9878 9873 9868 9863 9858 9855 9852 9849 9845 9842 9838 9835 9832 9829 9826 9824 9821 9818 9815 9813 9812 9810 9809 9808 9807 9806 9805 9804 9803 9803 9803 9803 9802 9802 9802 9801 9801 9801 9801 9801 9801 9802 9802 9803 9804 9805 9806 9807 9808 9809 9811 9812 9814 9816 9818 9821 9823 9825 9827 9830 9833 9836 9838
9992 9986 9981 9975 9970 9964 9959 9953 9948 9943 9938 9933 9928 9923 9919 9914 9909 9905 9900 9893 9886 9879 9874 9870 9865 9860 9855 9851 9847 9844 9842 9839 9835 9832 9829 9826 9823 9820 9818 9815 9812 9809 9807 9806 9804 9803 9802 9801 9800 9799 9799 9798 9797 9797 9797 9797 9797 9796 9796 9796 9795 9795 9795 9795 9796 9796 9797 9798 9799 9800 9801 9802 9803 9805 9806 9808 9809 9811 9813 9815 9818 9820 9823 9825 9827
9985 9980 9974 9969 9964 9958 9953 9948 9943 9938 9933 9927 9923 9918 9913 9909 9903 9898 9894 9890 9885 9879 9873 9868 9863 9858 9853 9848 9844 9840 9837 9835 9832 9828 9825 9822 9819 9817 9814 9812 9809 9806 9803 9801 9800 9799 9798 9797 9796 9795 9794 9793 9792 9792 9791 9791 9791 9791 9791 9791 9790 9790 9790 9790 9790 9790 9791 9791 9792 9793 9794 9795 9796 9797 9799 9800 9802 9803 9805 9806 9808 9811 9813 9814 9816
9978 9973 9968 9963 9957 9952 9947 9942 9937 9932 9928 9923 9918 9913 9908 9904 9899 9894 9889 9884 9880 9875 9870 9864 9860 9855 9851 9846 9842 9838 9834 9831 9828 9824 9821 9818 9815 9813 9810 9808 9805 9803 9800 9797 9795 9794 9793 9792 9791 9790 9789 9788 9787 9787 9786 9786 9785 9785 9785 9785 9785 9785 9784 9784 9784 9784 9784 9785 9786 9786 9787 9788 9789 9790 9791 9793 9794 9795 9797 9799 9800 9802 9804 9805 9805
9971 9966 9961 9956 9951 9946 9941 9936 9932 9927 9922 9917 9913 9908 9903 9898 9894 9889 9885 9880 9875 9870 9865 9860 9855 9851 9846 9842 9838 9834 9831 9827 9824 9821 9817 9814 9811 9809 9806 9804 9801 9799 9796 9794 9791 9790 9788 9787 9786 9785 9784 9783 9783 9782 9781 9780 9780 9779 9779 9779 9779 9779 9779 9779 9778 9778 9779 9779 9779 9780 9780 9781 9782 9783 9784 9785 9787 9788 9790 9791 9793 9794 9795 9796 9797
9964 9959 9954 9949 9944 9940 9935 9930 9926 9921 9917 9912 9907 9902 9898 9893 9888 9884 9880 9876 9871 9867 9862 9857 9852 9847 9842 9838 9835 9831 9827 9823 9820 9817 9814 9811 9807 9804 9802 9800 9797 9795 9792 9790 9788 9786 9784 9782 9781 9780 9779 9778 9778 9777 9777 9776 9775 9774 9774 9773 9773 9773 9773 9773 9773 9773 9773 9773 9773 9774 9774 9775 9775 9776 9777 9778 9779 9780 9782 9783 9785 9787 9788 9789 9789
9956 9951 9947 9942 9937 9933 9928 9924 9920 9915 9911 9907 9902 9897 9893 9888 9883 9879 9875 9871 9867 9863 9858 9853 9849 9844 9839 9835 9831 9827 9824 9820 9816 9813 9810 9807 9804 9801 9798 9795 9793 9791 9788 9786 9783 9781 9780 9778 9777 9775 9774 9773 9772 9772 9771 9771 9770 9770 9769 9768 9768 9767 9767 9767 9767 9767 9767 9767 9767 9768 9768 9768 9769 9770 9770 9771 9772 9773 9774 9776 9777 9779 9780 9781 9782
9949 9944 9939 9935 9930 9926 9921 9917 9913 9909 9905 9901 9897 9892 9888 9883 9879 9874 9870 9866 9862 9858 9854 9849 9845 9841 9836 9831 9827 9823 9819 9816 9812 9809 9805 9802 9799 9796 9794 9791 9788 9786 9784 9782 9779 9777 9775 9774 9772 9771 9769 9768 9767 9767 9766 9765 9765 9764 9764 9764 9763 9762 9762 9761 9761 9761 9761 9761 9761 9761 9762 9762 9763 9763 9764 9765 9766 9767 9768 9769 9770 9771 9772 9774 9775
9941 9936 9931 9927 9923 9918 9914 9910 9906 9903 9899 9895 9891 9887 9883 9878 9874 9870 9865 9861 9857 9853 9849 9844 9840 9836 9832 9828 9824 9819 9815 9811 9808 9805 9801 9798 9795 9792 9789 9786 9783 9781 9779 9777 9775 9773 9771 9769 9767 9766 9764 9763 9762 9761 9761 9760 9759 9758 9758 9758 9757 9757 9757 9756 9756 9755 9755 9755 9755 9755 9756 9756 9757 9757 9758 9758 9759 9760 9761 9762 9763 9764 9765 9766 9767
9934 9929 9924 9920 9916 9911 9907 9903 9900 9896 9892 9888 9885 9881 9877 9872 9868 9864 9860 9856 9851 9847 9843 9839 9835 9831 9828 9824 9820 9816 9811 9807 9803 9800 9796 9793 9790 9787 9784 9781 9779 9776 9773 9771 9769 9768 9766 9764 9762 9761 9759 9758 9757 9756 9755 9754 9754 9753 9752 9751 9751 9751 9751 9751 9750 9750 9750 9750 9749 9749 9750 9750 9750 9751 9752 9752 9753 9753 9754 9755 9756 9757 9758 9759 9760
9926 9922 9917 9913 9909 9905 9901 9897 9893 9889 9885 9882 9878 9874 9870 9866 9862 9858 9854 9850 9846 9842 9837 9833 9829 9825 9822 9819 9815 9811 9807 9803 9799 9795 9792 9788 9785 9781 9779 9776 9774 9771 9768 9766 9763 9762 9760 9758 9757 9755 9754 9753 9752 9751 9750 9749 9748 9747 9746 9746 9745 9745 9745 9745 9745 9744 9744 9744 9744 9744 9744 9744 9744 9744 9745 9746 9746 9747 9747 9748 9749 9750 9751 9752 9753
9919 9914 9910 9906 9902 9898 9894 9890 9886 9882 9878 9874 9871 9867 9863 9859 9855 9852 9848 9844 9840 9836 9832 9828 9823 9820 9816 9813 9809 9806 9802 9799 9795 9791 9787 9784 9780 9776 9773 9770 9768 9766 9763 9761 9758 9756 9754 9753 9751 9750 9748 9747 9746 9745 9744 9743 9742 9742 9741 9740 9740 9739 9739 9739 9738 9738 9738 9738 9738 9738 9738 9738 9738 9738 9739 9739 9740 9741 9741 9742 9742 9743 9744 9745 9746
9912 9907 9903 9899 9895 9890 9887 9883 9879 9875 9871 9868 9864 9860 9857 9853 9849 9845 9841 9838 9834 9830 9826 9822 9818 9815 9811 9807 9803 9800 9796 9793 9789 9786 9783 9779 9776 9772 9768 9765 9762 9760 9758 9755 9753 9751 9748 9747 9745 9744 9742 9741 9740 9739 9738 9737 9737 9736 9735 9735 9734 9734 9733 9733 9732 9732 9732 9732 9732 9732 9732 9732 9732 9732 9733 9733 9733 9734 9735 9735 9736 9737 9737 9738 9739
9905 9901 9896 9892 9888 9884 9880 9876 9872 9868 9865 9861 9857 9854 9850 9846 9842 9838 9835 9831 9827 9824 9820 9817 9813 9810 9806 9802 9798 9794 9791 9787 9784 9780 9777 9774 9770 9767 9764 9760 9757 9754 9752 9749 9747 9745 9743 9741 9739 9738 9736 9735 9734 9733 9732 9731 9730 9730 9729 9729 9728 9728 9728 9727 9727 9726 9726 9726 9726 9726 9726 9726 9727 9727 9727 9727 9727 9728 9728 9729 9729 9730 9731 9731 9732
9898 9893 9889 9885 9881 9877 9873 9869 9865 9861 9858 9854 9850 9847 9843 9839 9836 9832 9828 9824 9821 9817 9814 9810 9807 9804 9801 9797 9793 9790 9786 9782 9778 9775 9771 9768 9764 9761 9758 9755 9752 9749 9746 9744 9741 9739 9737 9735 9733 9731 9730 9729 9728 9727 9726 9725 9724 9723 9723 9722 9722 9722 9721 9721 9721 9721 9720 9720 9720 9720 9720 9720 9720 9721 9721 9722 9722 9722 9722 9723 9723 9724 9724 9725 9726
9890 9887 9882 9878 9874 9870 9866 9862 9858 9854 9851 9847 9844 9840 9837 9833 9829 9825 9822 9818 9814 9811 9807 9804 9801 9798 9795 9791 9788 9784 9780 9777 9773 9769 9765 9762 9758 9755 9751 9748 9745 9742 9740 9737 9735 9733 9731 9729 9727 9725 9724 9722 9721 9720 9719 9718 9718 9717 9716 9716 9715 9715 9715 9714 9714 9714 9714 9714 9714 9714 9714 9714 9714 9715 9715 9715 9716 9716 9717 9717 9718 9718 9719 9719 9720
9884 9879 9875 9871 9867 9863 9859 9855 9851 9847 9844 9840 9837 9834 9830 9827 9823 9819 9815 9812 9808 9805 9801 9798 9795 9791 9788 9785 9781 9778 9774 9770 9767 9763 9760 9756 9752 9749 9745 9742 9739 9736 9733 9731 9729 9726 9725 9723 9721 9719 9718 9716 9715 9714 9713 9712 9711 9710 9710 9709 9709 9708 9708 9708 9707 9707 9707 9707 9707 9707 9708 9708 9708 9708 9708 9709 9709 9710 9711 9711 9712 9712 9713 9714 9714
9876 9872 9868 9864 9860 9856 9852 9848 9845 9841 9837 9834 9830 9827 9823 9820 9816 9813 9809 9805 9802 9798 9795 9792 9788 9785 9782 9778 9775 9771 9767 9764 9760 9757 9753 9750 9746 9743 9739 9736 9732 9729 9726 9724 9722 9720 9718 9716 9714 9713 9711 9710 9709 9707 9706 9706 9704 9703 9703 9702 9702 9701 9701 9701 9701 9700 9700 9700 9701 9701 9701 9701 9701 9702 9702 9702 9703 9703 9704 9705 9706 9706 9707 9707 9708
9869 9865 9861 9857 9853 9849 9846 9842 9838 9834 9831 9827 9823 9820 9816 9813 9809 9806 9802 9799 9795 9792 9788 9785 9782 9778 9775 9772 9768 9764 9761 9757 9754 9750 9747 9743 9740 9736 9733 9729 9726 9723 9720 9717 9715 9713 9711 9709 9707 9706 9705 9703 9702 9701 9700 9699 9698 9697 9696 9695 9694 9694 9694 9694 9694 9694 9693 9693 9693 9694 9694 9694 9694 9695 9695 9695 9696 9696 9697 9698 9699 9700 9701 9701 9702